Time,TemperatureF,DewpointF,PressureIn,WindDirection,WindDirectionDegrees,WindSpeedMPH,WindSpeedGustMPH,Humidity,HourlyPrecipIn,Conditions,Clouds,dailyrainin,SoftwareType,DateUTC
2013-03-27 00:03:00,40.0,31.0,29.77,NW,304,0.0,-999.0,71,-99.99,,,-99.99,,2013-03-27 04:03:00,
2013-03-27 00:23:00,39.0,31.0,29.77,NW,304,0.0,-999.0,74,-99.99,,,-99.99,,2013-03-27 04:23:00,
2013-03-27 00:33:00,38.0,31.0,29.77,NW,304,0.0,-999.0,77,-99.99,,,-99.99,,2013-03-27 04:33:00,
2013-03-27 00:42:00,38.0,31.0,29.77,NW,304,0.0,-999.0,77,-99.99,,,-99.99,,2013-03-27 04:42:00,
2013-03-27 00:53:00,37.0,31.0,29.77,NW,304,0.0,-999.0,79,-99.99,,,-99.99,,2013-03-27 04:53:00,
2013-03-27 01:02:00,37.0,32.0,29.78,NW,304,0.0,-999.0,81,-99.99,,,-99.99,,2013-03-27 05:02:00,
2013-03-27 01:12:00,37.0,32.0,29.78,NW,304,0.0,-999.0,81,-99.99,,,-99.99,,2013-03-27 05:12:00,
2013-03-27 01:23:00,36.0,31.0,29.78,NW,304,0.0,-999.0,82,-99.99,,,-99.99,,2013-03-27 05:23:00,
2013-03-27 01:33:00,36.0,31.0,29.78,NW,304,0.0,-999.0,83,-99.99,,,-99.99,,2013-03-27 05:33:00,
2013-03-27 01:42:00,36.0,31.0,29.78,NW,304,0.0,-999.0,83,-99.99,,,-99.99,,2013-03-27 05:42:00,
2013-03-27 01:53:00,36.0,31.0,29.78,NW,304,0.0,-999.0,83,-99.99,,,-99.99,,2013-03-27 05:53:00,
2013-03-27 02:02:00,36.0,32.0,29.78,NW,304,0.0,-999.0,84,-99.99,,,-99.99,,2013-03-27 06:02:00,
2013-03-27 02:12:00,36.0,32.0,29.78,NW,304,0.0,-999.0,84,-99.99,,,-99.99,,2013-03-27 06:12:00,
2013-03-27 02:22:00,35.0,31.0,29.78,NW,304,0.0,-999.0,84,-99.99,,,-99.99,,2013-03-27 06:22:00,
2013-03-27 02:32:00,35.0,31.0,29.78,NW,304,0.0,-999.0,85,-99.99,,,-99.99,,2013-03-27 06:32:00,
2013-03-27 02:42:00,35.0,31.0,29.78,NW,304,0.0,-999.0,85,-99.99,,,-99.99,,2013-03-27 06:42:00,
2013-03-27 02:53:00,35.0,31.0,29.78,NW,311,1.0,-999.0,86,-99.99,,,-99.99,,2013-03-27 06:53:00,
2013-03-27 03:02:00,35.0,31.0,29.78,NNW,338,1.0,-999.0,86,-99.99,,,-99.99,,2013-03-27 07:02:00,
2013-03-27 03:12:00,35.0,31.0,29.78,NNW,338,1.0,-999.0,86,-99.99,,,-99.99,,2013-03-27 07:12:00,
2013-03-27 03:22:00,35.0,31.0,29.78,NW,323,1.0,-999.0,85,-99.99,,,-99.99,,2013-03-27 07:22:00,
2013-03-27 03:32:00,35.0,31.0,29.77,NNW,343,1.0,-999.0,85,-99.99,,,-99.99,,2013-03-27 07:32:00,
2013-03-27 03:42:00,35.0,31.0,29.77,NNW,343,1.0,-999.0,85,-99.99,,,-99.99,,2013-03-27 07:42:00,
2013-03-27 03:53:00,34.0,30.0,29.77,NW,324,1.0,-999.0,85,-99.99,,,-99.99,,2013-03-27 07:53:00,
2013-03-27 04:02:00,34.0,30.0,29.77,NNW,331,1.0,-999.0,85,-99.99,,,-99.99,,2013-03-27 08:02:00,
2013-03-27 04:13:00,34.0,30.0,29.77,NNW,331,1.0,-999.0,85,-99.99,,,-99.99,,2013-03-27 08:13:00,
2013-03-27 04:22:00,34.0,30.0,29.77,NNW,327,1.0,-999.0,86,-99.99,,,-99.99,,2013-03-27 08:22:00,
2013-03-27 04:32:00,34.0,30.0,29.78,WNW,296,0.0,-999.0,85,-99.99,,,-99.99,,2013-03-27 08:32:00,
2013-03-27 04:43:00,34.0,30.0,29.78,WNW,296,0.0,-999.0,85,-99.99,,,-99.99,,2013-03-27 08:43:00,
2013-03-27 04:52:00,34.0,30.0,29.78,NW,309,0.0,-999.0,85,-99.99,,,-99.99,,2013-03-27 08:52:00,
2013-03-27 05:02:00,34.0,30.0,29.78,NW,306,0.0,-999.0,84,-99.99,,,-99.99,,2013-03-27 09:02:00,
2013-03-27 05:12:00,34.0,30.0,29.78,NW,306,0.0,-999.0,84,-99.99,,,-99.99,,2013-03-27 09:12:00,
2013-03-27 05:22:00,33.0,29.0,29.78,WNW,294,1.0,-999.0,84,-99.99,,,-99.99,,2013-03-27 09:22:00,
2013-03-27 05:33:00,33.0,28.0,29.78,NW,324,1.0,-999.0,83,-99.99,,,-99.99,,2013-03-27 09:33:00,
2013-03-27 05:42:00,33.0,28.0,29.78,NW,324,1.0,-999.0,83,-99.99,,,-99.99,,2013-03-27 09:42:00,
2013-03-27 05:52:00,34.0,29.0,29.79,NW,309,1.0,-999.0,81,-99.99,,,-99.99,,2013-03-27 09:52:00,
2013-03-27 06:03:00,34.0,29.0,29.80,WNW,297,1.0,-999.0,81,-99.99,,,-99.99,,2013-03-27 10:03:00,
2013-03-27 06:13:00,34.0,29.0,29.80,WNW,297,1.0,-999.0,81,-99.99,,,-99.99,,2013-03-27 10:13:00,
2013-03-27 06:23:00,33.0,28.0,29.80,NW,313,1.0,-999.0,81,-99.99,,,-99.99,,2013-03-27 10:23:00,
2013-03-27 06:32:00,33.0,28.0,29.80,NW,313,1.0,-999.0,81,-99.99,,,-99.99,,2013-03-27 10:32:00,
2013-03-27 06:42:00,33.0,28.0,29.80,NW,313,1.0,-999.0,81,-99.99,,,-99.99,,2013-03-27 10:42:00,
2013-03-27 06:53:00,32.0,27.0,29.80,NW,311,0.0,-999.0,83,-99.99,,,-99.99,,2013-03-27 10:53:00,
2013-03-27 07:02:00,32.0,27.0,29.80,NW,311,0.0,-999.0,83,-99.99,,,-99.99,,2013-03-27 11:02:00,
2013-03-27 07:12:00,32.0,27.0,29.80,NW,311,0.0,-999.0,83,-99.99,,,-99.99,,2013-03-27 11:12:00,
2013-03-27 07:22:00,32.0,27.0,29.81,North,360,0.0,-999.0,83,-99.99,,,-99.99,,2013-03-27 11:22:00,
2013-03-27 07:32:00,32.0,28.0,29.82,North,360,0.0,-999.0,84,-99.99,,,-99.99,,2013-03-27 11:32:00,
2013-03-27 07:42:00,32.0,28.0,29.82,North,360,0.0,-999.0,84,-99.99,,,-99.99,,2013-03-27 11:42:00,
2013-03-27 07:53:00,32.0,28.0,29.83,NNW,343,0.0,-999.0,85,-99.99,,,-99.99,,2013-03-27 11:53:00,
2013-03-27 08:02:00,34.0,30.0,29.83,NW,315,1.0,-999.0,85,-99.99,,,-99.99,,2013-03-27 12:02:00,
2013-03-27 08:12:00,34.0,30.0,29.83,NW,315,1.0,-999.0,85,-99.99,,,-99.99,,2013-03-27 12:12:00,
2013-03-27 08:23:00,37.0,32.0,29.83,NW,313,2.0,-999.0,81,-99.99,,,-99.99,,2013-03-27 12:23:00,
2013-03-27 08:32:00,37.0,32.0,29.83,NW,313,2.0,-999.0,81,-99.99,,,-99.99,,2013-03-27 12:32:00,
2013-03-27 08:43:00,37.0,32.0,29.83,NW,313,2.0,-999.0,81,-99.99,,,-99.99,,2013-03-27 12:43:00,
2013-03-27 08:52:00,38.0,32.0,29.84,WNW,284,2.0,-999.0,78,-99.99,,,-99.99,,2013-03-27 12:52:00,
2013-03-27 09:02:00,39.0,32.0,29.83,NNW,330,2.0,-999.0,76,-99.99,,,-99.99,,2013-03-27 13:02:00,
2013-03-27 09:12:00,39.0,32.0,29.83,NNW,330,2.0,-999.0,76,-99.99,,,-99.99,,2013-03-27 13:12:00,
2013-03-27 09:22:00,41.0,33.0,29.84,NW,323,4.0,-999.0,74,-99.99,,,-99.99,,2013-03-27 13:22:00,
2013-03-27 09:32:00,42.0,33.0,29.84,WNW,302,2.0,-999.0,71,-99.99,,,-99.99,,2013-03-27 13:32:00,
2013-03-27 09:42:00,42.0,33.0,29.84,WNW,302,2.0,-999.0,71,-99.99,,,-99.99,,2013-03-27 13:42:00,
2013-03-27 09:52:00,44.0,34.0,29.83,WNW,302,3.0,-999.0,69,-99.99,,,-99.99,,2013-03-27 13:52:00,
2013-03-27 10:02:00,45.0,34.0,29.83,WNW,294,3.0,-999.0,66,-99.99,,,-99.99,,2013-03-27 14:02:00,
2013-03-27 10:12:00,45.0,34.0,29.83,WNW,294,3.0,-999.0,66,-99.99,,,-99.99,,2013-03-27 14:12:00,
2013-03-27 10:22:00,46.0,34.0,29.84,NW,322,4.0,-999.0,63,-99.99,,,-99.99,,2013-03-27 14:22:00,
2013-03-27 10:32:00,46.0,33.0,29.83,NW,309,4.0,-999.0,61,-99.99,,,-99.99,,2013-03-27 14:32:00,
2013-03-27 10:42:00,46.0,33.0,29.83,NW,309,4.0,-999.0,61,-99.99,,,-99.99,,2013-03-27 14:42:00,
2013-03-27 10:52:00,47.0,34.0,29.83,NW,312,4.0,-999.0,60,-99.99,,,-99.99,,2013-03-27 14:52:00,
2013-03-27 11:03:00,47.0,33.0,29.83,NW,314,5.0,-999.0,59,-99.99,,,-99.99,,2013-03-27 15:03:00,
2013-03-27 11:12:00,47.0,33.0,29.83,NW,314,5.0,-999.0,59,-99.99,,,-99.99,,2013-03-27 15:12:00,
2013-03-27 11:23:00,48.0,34.0,29.83,West,278,4.0,-999.0,57,-99.99,,,-99.99,,2013-03-27 15:23:00,
2013-03-27 11:33:00,49.0,34.0,29.83,WNW,297,4.0,-999.0,55,-99.99,,,-99.99,,2013-03-27 15:33:00,
2013-03-27 11:43:00,49.0,34.0,29.83,WNW,297,4.0,-999.0,55,-99.99,,,-99.99,,2013-03-27 15:43:00,
2013-03-27 11:52:00,50.0,33.0,29.83,NW,308,5.0,-999.0,52,-99.99,,,-99.99,,2013-03-27 15:52:00,
2013-03-27 12:03:00,50.0,32.0,29.83,NNW,332,4.0,-999.0,50,-99.99,,,-99.99,,2013-03-27 16:03:00,
2013-03-27 12:13:00,50.0,32.0,29.83,NNW,332,4.0,-999.0,50,-99.99,,,-99.99,,2013-03-27 16:13:00,
2013-03-27 12:22:00,51.0,31.0,29.82,WNW,297,4.0,-999.0,47,-99.99,,,-99.99,,2013-03-27 16:22:00,
2013-03-27 12:33:00,52.0,31.0,29.81,NNW,327,3.0,-999.0,45,-99.99,,,-99.99,,2013-03-27 16:33:00,
2013-03-27 12:42:00,52.0,31.0,29.81,NNW,327,3.0,-999.0,45,-99.99,,,-99.99,,2013-03-27 16:42:00,
2013-03-27 12:52:00,53.0,29.0,29.81,West,267,5.0,-999.0,39,-99.99,,,-99.99,,2013-03-27 16:52:00,
2013-03-27 13:03:00,53.0,28.0,29.80,NNW,342,5.0,-999.0,38,-99.99,,,-99.99,,2013-03-27 17:03:00,
2013-03-27 13:12:00,53.0,28.0,29.80,NNW,342,5.0,-999.0,38,-99.99,,,-99.99,,2013-03-27 17:12:00,
2013-03-27 13:22:00,53.0,28.0,29.80,NNW,342,5.0,-999.0,38,-99.99,,,-99.99,,2013-03-27 17:22:00,
2013-03-27 13:32:00,54.0,26.0,29.80,WNW,301,5.0,-999.0,34,-99.99,,,-99.99,,2013-03-27 17:32:00,
2013-03-27 13:44:00,54.0,26.0,29.80,WNW,301,5.0,-999.0,34,-99.99,,,-99.99,,2013-03-27 17:44:00,
2013-03-27 13:52:00,54.0,27.0,29.80,NW,304,4.0,-999.0,35,-99.99,,,-99.99,,2013-03-27 17:52:00,
2013-03-27 14:02:00,54.0,27.0,29.80,NW,304,4.0,-999.0,35,-99.99,,,-99.99,,2013-03-27 18:02:00,
2013-03-27 14:12:00,54.0,27.0,29.80,NW,304,4.0,-999.0,35,-99.99,,,-99.99,,2013-03-27 18:12:00,
2013-03-27 14:23:00,55.0,26.0,29.79,West,266,5.0,-999.0,33,-99.99,,,-99.99,,2013-03-27 18:23:00,
2013-03-27 14:33:00,52.0,27.0,29.78,WNW,286,4.0,-999.0,38,-99.99,,,-99.99,,2013-03-27 18:33:00,
2013-03-27 14:42:00,52.0,27.0,29.78,WNW,286,4.0,-999.0,38,-99.99,,,-99.99,,2013-03-27 18:42:00,
2013-03-27 14:52:00,51.0,27.0,29.78,NNW,330,5.0,-999.0,39,-99.99,,,-99.99,,2013-03-27 18:52:00,
2013-03-27 15:03:00,50.0,27.0,29.78,WNW,292,5.0,-999.0,40,-99.99,,,-99.99,,2013-03-27 19:03:00,
2013-03-27 15:12:00,50.0,27.0,29.78,WNW,292,5.0,-999.0,40,-99.99,,,-99.99,,2013-03-27 19:12:00,
2013-03-27 15:22:00,51.0,30.0,29.79,NNW,344,5.0,-999.0,44,-99.99,,,-99.99,,2013-03-27 19:22:00,
2013-03-27 15:32:00,53.0,29.0,29.78,West,263,4.0,-999.0,40,-99.99,,,-99.99,,2013-03-27 19:32:00,
2013-03-27 15:42:00,53.0,29.0,29.78,West,263,4.0,-999.0,40,-99.99,,,-99.99,,2013-03-27 19:42:00,
2013-03-27 15:52:00,54.0,27.0,29.78,WNW,284,4.0,-999.0,35,-99.99,,,-99.99,,2013-03-27 19:52:00,
2013-03-27 16:03:00,54.0,28.0,29.78,NNW,330,5.0,-999.0,36,-99.99,,,-99.99,,2013-03-27 20:03:00,
2013-03-27 16:12:00,54.0,28.0,29.78,NNW,330,5.0,-999.0,36,-99.99,,,-99.99,,2013-03-27 20:12:00,
2013-03-27 16:22:00,53.0,27.0,29.78,ENE,71,4.0,-999.0,37,-99.99,,,-99.99,,2013-03-27 20:22:00,
2013-03-27 16:32:00,52.0,28.0,29.78,WNW,286,2.0,-999.0,40,-99.99,,,-99.99,,2013-03-27 20:32:00,
2013-03-27 16:43:00,52.0,28.0,29.78,WNW,286,2.0,-999.0,40,-99.99,,,-99.99,,2013-03-27 20:43:00,
2013-03-27 16:52:00,52.0,27.0,29.78,NW,323,4.0,-999.0,38,-99.99,,,-99.99,,2013-03-27 20:52:00,
2013-03-27 17:02:00,50.0,27.0,29.79,NW,317,3.0,-999.0,41,-99.99,,,-99.99,,2013-03-27 21:02:00,
2013-03-27 17:12:00,50.0,27.0,29.79,NW,317,3.0,-999.0,41,-99.99,,,-99.99,,2013-03-27 21:12:00,
2013-03-27 17:22:00,50.0,29.0,29.79,WSW,258,2.0,-999.0,44,-99.99,,,-99.99,,2013-03-27 21:22:00,
2013-03-27 17:32:00,52.0,29.0,29.79,WSW,258,3.0,-999.0,41,-99.99,,,-99.99,,2013-03-27 21:32:00,
2013-03-27 17:43:00,52.0,29.0,29.79,WSW,258,3.0,-999.0,41,-99.99,,,-99.99,,2013-03-27 21:43:00,
2013-03-27 17:52:00,52.0,28.0,29.79,NW,313,4.0,-999.0,40,-99.99,,,-99.99,,2013-03-27 21:52:00,
2013-03-27 18:03:00,50.0,29.0,29.80,WNW,291,5.0,-999.0,45,-99.99,,,-99.99,,2013-03-27 22:03:00,
2013-03-27 18:12:00,50.0,29.0,29.80,WNW,291,5.0,-999.0,45,-99.99,,,-99.99,,2013-03-27 22:12:00,
2013-03-27 18:23:00,49.0,31.0,29.80,NW,316,3.0,-999.0,50,-99.99,,,-99.99,,2013-03-27 22:23:00,
2013-03-27 18:33:00,48.0,29.0,29.81,WNW,298,3.0,-999.0,48,-99.99,,,-99.99,,2013-03-27 22:33:00,
2013-03-27 18:42:00,48.0,29.0,29.81,WNW,298,3.0,-999.0,48,-99.99,,,-99.99,,2013-03-27 22:42:00,
2013-03-27 18:52:00,47.0,31.0,29.81,WNW,302,3.0,-999.0,53,-99.99,,,-99.99,,2013-03-27 22:52:00,
2013-03-27 19:02:00,46.0,31.0,29.82,NW,305,2.0,-999.0,55,-99.99,,,-99.99,,2013-03-27 23:02:00,
2013-03-27 19:12:00,46.0,31.0,29.82,NW,305,2.0,-999.0,55,-99.99,,,-99.99,,2013-03-27 23:12:00,
2013-03-27 19:22:00,46.0,31.0,29.82,NW,313,0.0,-999.0,56,-99.99,,,-99.99,,2013-03-27 23:22:00,
2013-03-27 19:32:00,46.0,32.0,29.83,NW,317,2.0,-999.0,58,-99.99,,,-99.99,,2013-03-27 23:32:00,
2013-03-27 19:42:00,46.0,32.0,29.83,NW,317,2.0,-999.0,58,-99.99,,,-99.99,,2013-03-27 23:42:00,
2013-03-27 19:52:00,46.0,32.0,29.84,NW,325,3.0,-999.0,57,-99.99,,,-99.99,,2013-03-27 23:52:00,
2013-03-27 20:02:00,46.0,31.0,29.84,WNW,303,5.0,-999.0,56,-99.99,,,-99.99,,2013-03-28 00:02:00,
2013-03-27 20:12:00,46.0,31.0,29.84,WNW,303,5.0,-999.0,56,-99.99,,,-99.99,,2013-03-28 00:12:00,
2013-03-27 20:22:00,45.0,31.0,29.84,NW,325,4.0,-999.0,58,-99.99,,,-99.99,,2013-03-28 00:22:00,
2013-03-27 20:33:00,45.0,32.0,29.85,NW,313,3.0,-999.0,59,-99.99,,,-99.99,,2013-03-28 00:33:00,
2013-03-27 20:43:00,45.0,32.0,29.85,NW,313,3.0,-999.0,59,-99.99,,,-99.99,,2013-03-28 00:43:00,
2013-03-27 20:52:00,44.0,31.0,29.85,WNW,295,4.0,-999.0,60,-99.99,,,-99.99,,2013-03-28 00:52:00,
2013-03-27 21:02:00,44.0,31.0,29.86,WNW,298,3.0,-999.0,61,-99.99,,,-99.99,,2013-03-28 01:02:00,
2013-03-27 21:12:00,44.0,31.0,29.86,WNW,298,3.0,-999.0,61,-99.99,,,-99.99,,2013-03-28 01:12:00,
2013-03-27 21:22:00,44.0,32.0,29.86,NW,311,3.0,-999.0,62,-99.99,,,-99.99,,2013-03-28 01:22:00,
2013-03-27 21:32:00,44.0,32.0,29.86,NW,311,3.0,-999.0,62,-99.99,,,-99.99,,2013-03-28 01:32:00,
2013-03-27 21:42:00,44.0,32.0,29.86,NW,311,3.0,-999.0,62,-99.99,,,-99.99,,2013-03-28 01:42:00,
2013-03-27 21:52:00,43.0,31.0,29.88,NW,323,2.0,-999.0,63,-99.99,,,-99.99,,2013-03-28 01:52:00,
2013-03-27 22:03:00,42.0,31.0,29.88,NNW,329,1.0,-999.0,64,-99.99,,,-99.99,,2013-03-28 02:03:00,
2013-03-27 22:12:00,42.0,31.0,29.88,NNW,329,1.0,-999.0,64,-99.99,,,-99.99,,2013-03-28 02:12:00,
2013-03-27 22:22:00,41.0,30.0,29.88,NW,307,1.0,-999.0,65,-99.99,,,-99.99,,2013-03-28 02:22:00,
2013-03-27 22:33:00,41.0,31.0,29.89,NNW,331,2.0,-999.0,66,-99.99,,,-99.99,,2013-03-28 02:33:00,
2013-03-27 22:42:00,41.0,31.0,29.89,NNW,331,2.0,-999.0,66,-99.99,,,-99.99,,2013-03-28 02:42:00,
2013-03-27 22:52:00,41.0,31.0,29.89,NNW,331,2.0,-999.0,66,-99.99,,,-99.99,,2013-03-28 02:52:00,
2013-03-27 23:02:00,41.0,31.0,29.89,WNW,302,1.0,-999.0,66,-99.99,,,-99.99,,2013-03-28 03:02:00,
2013-03-27 23:12:00,41.0,31.0,29.89,WNW,302,1.0,-999.0,66,-99.99,,,-99.99,,2013-03-28 03:12:00,
2013-03-27 23:22:00,40.0,31.0,29.89,NW,321,1.0,-999.0,71,-99.99,,,-99.99,,2013-03-28 03:22:00,
2013-03-27 23:33:00,40.0,31.0,29.89,WNW,298,2.0,-999.0,69,-99.99,,,-99.99,,2013-03-28 03:33:00,
2013-03-27 23:43:00,40.0,31.0,29.89,WNW,298,2.0,-999.0,69,-99.99,,,-99.99,,2013-03-28 03:43:00,
2013-03-27 23:52:00,40.0,31.0,29.89,NW,317,2.0,-999.0,70,-99.99,,,-99.99,,2013-03-28 03:52:00,